FW9103 Weather Reports


time (UTC)temp
F
wind
direction
speed
knots
gust
knots
rain 1hr
in
rain 24hr
in
rain mn
in
humidity
%
barometer
mb
20260505125021 59 166 1.7 5.2 0.00 0.00 0.00 81 1011.9
20260505124021 59 148 2.6 7.8 0.00 0.00 0.00 81 1011.9
20260505123021 59 161 2.6 5.2 0.00 0.00 0.00 82 1012.0
20260505122021 58 183 2.6 7.8 0.00 0.00 0.00 82 1012.0
20260505121022 58 165 1.7 4.3 0.00 0.00 0.00 83 1011.9
20260505120021 57 137 1.7 7.0 0.00 0.00 0.00 85 1012.0
20260505115021 56 159 1.7 5.2 0.00 0.00 0.00 85 1012.1
20260505114022 56 126 1.7 5.2 0.00 0.00 0.00 86 1012.1
20260505113023 55 156 1.7 5.2 0.00 0.00 0.00 87 1012.2
20260505112021 55 146 1.7 12.2 0.00 0.00 0.00 87 1012.1
20260505111021 54 142 1.7 6.1 0.00 0.00 0.00 88 1012.0
20260505102023 52 177 0.9 3.5 0.00 0.00 0.00 90 1012.0
20260505101021 52 170 0.9 4.3 0.00 0.00 0.00 90 1012.0
20260505100029 52 258 1.7 4.3 0.00 0.00 0.00 90 1011.9
20260505095021 52 206 0.9 4.3 0.00 0.00 0.00 90 1011.7
20260505094021 52 186 0.9 2.6 0.00 0.00 0.00 90 1011.7
20260505093021 52 214 0.9 6.1 0.00 0.00 0.00 90 1011.7
20260505092021 52 247 1.7 5.2 0.00 0.00 0.00 90 1011.7
20260505091021 52 284 0.9 6.1 0.00 0.00 0.00 90 1011.7
20260505090021 52 228 0.9 5.2 0.00 0.00 0.00 90 1011.7
20260505085021 52 223 0.9 2.6 0.00 0.00 0.00 90 1011.7
20260505084021 52 282 0.9 3.5 0.00 0.00 0.00 90 1011.7
20260505083021 52 252 0.9 3.5 0.00 0.00 0.00 90 1011.8
20260505082021 52 288 0.9 6.1 0.00 0.00 0.00 90 1011.9
20260505081021 52 291 0.9 3.5 0.00 0.00 0.00 90 1011.9
20260505080021 52 276 0.9 3.5 0.00 0.00 0.00 90 1012.0
20260505075021 52 304 1.7 3.5 0.00 0.00 0.00 90 1011.9
20260505074021 52 241 0.9 3.5 0.00 0.00 0.00 90 1012.0
20260505073021 52 278 0.9 4.3 0.00 0.00 0.00 90 1012.0
20260505072021 52 292 0.9 3.5 0.00 0.00 0.00 90 1011.9
20260505071022 52 304 0.9 3.5 0.00 0.00 0.00 90 1012.1
20260505070021 52 230 0.9 2.6 0.00 0.00 0.00 90 1012.0
20260505065026 52 255 0.9 3.5 0.00 0.00 0.00 90 1012.0
20260505064021 52 317 0.9 2.6 0.00 0.00 0.00 90 1011.9
20260505063021 52 260 0.9 2.6 0.00 0.00 0.00 90 1012.0
20260505062021 52 182 0.9 2.6 0.00 0.00 0.00 90 1011.9
20260505061021 52 301 0.9 3.5 0.00 0.00 0.00 90 1011.9
20260505060021 52 242 0.9 7.8 0.00 0.00 0.00 89 1011.9
20260505055022 52 286 1.7 4.3 0.00 0.00 0.00 89 1012.0
20260505054021 52 294 0.9 6.1 0.00 0.00 0.00 89 1012.0
20260505053021 52 298 0.9 5.2 0.00 0.00 0.00 88 1012.0
20260505052027 52 267 0.9 3.5 0.00 0.00 0.00 88 1012.0
20260505051022 52 297 0.9 5.2 0.00 0.00 0.00 88 1011.9
20260505041021 53 266 0.9 4.3 0.00 0.00 0.00 85 1012.3
20260505040028 53 283 0.9 3.5 0.00 0.00 0.00 85 1012.4
20260505035022 53 262 0.9 4.3 0.00 0.00 0.00 84 1012.5
20260505034021 53 176 1.7 5.2 0.00 0.00 0.00 84 1012.5
20260505033021 53 298 0.9 5.2 0.00 0.00 0.00 83 1012.4
20260505032021 53 285 1.7 4.3 0.00 0.00 0.00 83 1012.5
20260505031021 53 254 1.7 5.2 0.00 0.00 0.00 82 1012.5
20260505030022 53 244 1.7 7.0 0.00 0.00 0.00 82 1012.6
20260505025021 53 284 1.7 5.2 0.00 0.00 0.00 81 1012.5
20260505024021 53 282 1.7 10.4 0.00 0.00 0.00 81 1012.5
20260505023022 54 308 1.7 7.0 0.00 0.00 0.00 80 1012.5
20260505022021 54 274 2.6 7.8 0.00 0.00 0.00 80 1012.5
20260505021021 54 262 2.6 9.6 0.00 0.00 0.00 80 1012.3
20260505020022 54 298 1.7 10.4 0.00 0.00 0.00 80 1012.2
20260505015022 54 320 1.7 4.3 0.00 0.00 0.00 79 1012.2
20260505014022 54 264 1.7 6.1 0.00 0.00 0.00 78 1012.0
20260505013021 54 285 2.6 9.6 0.00 0.00 0.00 77 1011.9
20260505012022 54 264 1.7 6.1 0.00 0.00 0.00 77 1011.8
20260505011022 54 291 1.7 5.2 0.00 0.00 0.00 76 1011.7
20260505010021 54 256 1.7 6.1 0.00 0.00 0.00 76 1011.6
20260505005022 54 305 2.6 11.3 0.00 0.00 0.00 75 1011.5
20260505004022 54 311 2.6 7.0 0.00 0.00 0.00 73 1011.3
20260505003022 54 307 2.6 7.0 0.00 0.00 0.00 71 1011.1
20260505002021 55 296 2.6 9.6 0.00 0.00 0.00 69 1011.0
20260505001022 55 303 3.5 10.4 0.00 0.00 0.00 68 1010.9
20260505000022 55 300 2.6 9.6 0.00 0.00 0.00 68 1010.8
20260504235022 55 298 2.6 8.7 0.00 0.00 0.00 68 1010.6
20260504234022 55 304 2.6 7.8 0.00 0.00 0.00 68 1010.6
20260504233021 56 269 2.6 7.8 0.00 0.00 0.00 67 1010.5
20260504232022 56 271 2.6 6.1 0.00 0.00 0.00 66 1010.4
20260504231022 57 276 2.6 7.0 0.00 0.00 0.00 65 1010.2
20260504230021 58 186 1.7 7.8 0.00 0.00 0.00 64 1010.2
20260504225022 58 287 2.6 8.7 0.00 0.00 0.00 63 1010.1
20260504224022 59 208 2.6 9.6 0.00 0.00 0.00 63 1010.1
20260504223022 59 262 3.5 13.0 0.00 0.00 0.00 62 1010.1
20260504222021 60 270 2.6 8.7 0.00 0.00 0.00 60 1010.1
20260504221022 61 226 1.7 5.2 0.00 0.00 0.00 59 1010.2
20260504220022 61 211 1.7 5.2 0.00 0.00 0.00 60 1010.3
20260504215022 61 295 2.6 7.8 0.00 0.00 0.00 59 1010.3
20260504214022 62 203 3.5 9.6 0.00 0.00 0.00 57 1010.3
20260504213022 62 317 3.5 9.6 0.00 0.00 0.00 56 1010.3
20260504212022 62 252 3.5 9.6 0.00 0.00 0.00 55 1010.3
20260504211021 63 238 2.6 7.0 0.00 0.00 0.00 53 1010.2
20260504210022 63 317 3.5 11.3 0.00 0.00 0.00 51 1010.1
20260504205022 64 276 3.5 14.8 0.00 0.00 0.00 50 1010.0
20260504204022 65 317 3.5 13.0 0.00 0.00 0.00 51 1010.0
20260504203022 65 299 2.6 6.1 0.00 0.00 0.00 50 1009.9
20260504202022 65 296 2.6 9.6 0.00 0.00 0.00 50 1009.8
20260504201022 66 125 2.6 8.7 0.00 0.00 0.00 48 1009.8
20260504200022 67 277 2.6 10.4 0.00 0.00 0.00 45 1009.8
20260504195022 66 301 2.6 16.5 0.00 0.00 0.00 43 1009.6
20260504194022 66 334 5.2 11.3 0.00 0.00 0.00 41 1009.6
20260504193022 67 223 4.3 7.8 0.00 0.00 0.00 41 1009.6
20260504192022 66 314 5.2 12.2 0.00 0.00 0.00 41 1009.8
20260504191022 67 315 4.3 17.4 0.00 0.00 0.00 42 1009.8
20260504190022 66 334 4.3 20.0 0.00 0.00 0.00 43 1009.9
20260504185022 66 311 4.3 15.6 0.00 0.00 0.00 42 1009.9
20260504184022 66 270 4.3 15.6 0.00 0.00 0.00 45 1009.9
20260504183021 66 305 5.2 12.2 0.00 0.00 0.00 44 1009.7
20260504182022 66 300 3.5 13.0 0.00 0.00 0.00 45 1009.5
20260504181021 66 306 4.3 12.2 0.00 0.00 0.00 43 1009.6
20260504180022 67 179 3.5 9.6 0.00 0.00 0.00 41 1009.7
20260504175022 67 307 4.3 9.6 0.00 0.00 0.00 39 1009.7
20260504174022 67 329 4.3 10.4 0.00 0.00 0.00 39 1010.0
20260504173022 67 321 4.3 14.8 0.00 0.00 0.00 39 1009.9
20260504172022 67 120 3.5 8.7 0.00 0.00 0.00 41 1009.9
20260504171022 67 299 3.5 13.0 0.00 0.00 0.00 43 1010.0
20260504151022 65 293 1.7 5.2 0.00 0.02 0.00 57 1010.8
20260504141022 63 306 2.6 8.7 0.00 0.02 0.00 54 1011.1